Regional Weather Roundup
Issued by NWS

Home | Current Version | Previous Version | Text Only | Print | Product List | Glossary Off
Versions: 1 2 3 4 5 6 7 8 9 10 11 12 13 14 15 16 17 18 19 20 21 22 23 24 25 26 27 28 29 30 31 32 33 34 35 36 37 38 39 40 41 42 43 44 45 46 47 48 49 50

000
ASUS44 KMEG 212110
RWRTN
TENNESSEE HOURLY STATE WEATHER ROUNDUP
NATIONAL WEATHER SERVICE MEMPHIS TN
300 PM CST FRI NOV 21 2014

TNZ002-004-019-021-049-052-054-088>092-212200-
WEST TENNESSEE

CITY           SKY/WX    TMP DP  RH WIND       PRES   REMARKS
MEMPHIS INTL   CLOUDY    55  41  59 E7        30.28S
NWS MEMPHIS      N/A     55 N/A N/A MISG        N/A
JACKSON        CLOUDY    51  31  46 CALM      30.32S
DYERSBURG      CLOUDY    45  28  53 E6        30.33S
UNION CITY     CLOUDY    48  27  43 SE5       30.31F
PARIS            N/A     48  27  43 E7        30.33S
HUNTINGDON     CLOUDY    49  24  37 E7        30.33S
LEXINGTON      CLOUDY    54  28  37 E3        30.31F
SAVANNAH       CLOUDY    57  34  41 E7        30.31S
$$

TNZ008-025-027-028-033-062-065-066-212200-
NORTH MIDDLE TENNESSEE

CITY           SKY/WX    TMP DP  RH WIND       PRES   REMARKS
NASHVILLE      MOSUNNY   52  22  30 E6        30.38F
CLARKSVILLE    SUNNY     50  23  34 E12       30.36F
SMYRNA         SUNNY     56  23  27 E7        30.38F
COOKEVILLE     SUNNY     54  21  28 NE5       30.36F
CROSSVILLE     SUNNY     52  20  28 N3        30.37F
$$

TNZ061-075-076-078-094-096-097-212200-
SOUTH MIDDLE TENNESSEE

CITY           SKY/WX    TMP DP  RH WIND       PRES   REMARKS
FAYETTEVILLE   SUNNY     57  37  47 MISG      30.33F
TULLAHOMA      SUNNY     57  28  33 CALM      30.35F
WINCHESTER     SUNNY     57  36  44 VRB3      30.35S
MCMINNVILLE    SUNNY     54  25  32 CALM      30.36S
COLUMBIA       SUNNY     55  32  41 E7        30.33F
SHELBYVILLE    SUNNY     57  30  35 E3        30.36F
$$

TNZ017-018-042-046-047-212200-
NORTHEAST TENNESSEE

CITY           SKY/WX    TMP DP  RH WIND       PRES   REMARKS
TRI CITIES     SUNNY     46  10  23 CALM      30.43R
ELIZABETHTON   CLEAR     43   9  24 W6        30.42R
$$

TNZ012-013-036-069-073-074-212200-
CENTRAL EAST TENNESSEE

CITY           SKY/WX    TMP DP  RH WIND       PRES   REMARKS
KNOXVILLE      SUNNY     51  10  19 N8        30.39F
OAK RIDGE      SUNNY     51  12  21 VRB3      30.42S
GATLINBURG     CLEAR     48  16  27 NE5       30.40S
MORRISTOWN     CLEAR     46  18  31 SE5       30.42S
$$

TNZ083-085-099-212200-
SOUTHEAST TENNESSEE

CITY           SKY/WX    TMP DP  RH WIND       PRES   REMARKS
CHATTANOOGA    MOSUNNY   56  24  29 N9        30.39S
$$

SKY/WX REPORTED AS FAIR MEANS FEW OR NO CLOUDS BELOW
12 THOUSAND FEET.



USA.gov is the U.S. government's official web portal to all federal, state and local government web resources and services.